{"data":{"norad_id":62520,"intl_designator":"2025-004K","name":"STARLINK-11482 [DTC]","alt_names":[],"object_type":"PAYLOAD","status":"ACTIVE","operator":null,"country":"US","launch_date":"2025-01-08","launch_site_code":"AFETR","launch_vehicle":null,"mission":null,"orbit_class":"UNKNOWN","rcs_meters":null,"size_class":null,"mass_kg":null,"dimensions":null,"purposes":["comms"],"wikipedia_slug":null,"has_3d_model":false,"image_url":null,"decayed_at":null,"tle_current":{"epoch":"2026-09-21T11:19:08.665248Z","epoch_age_seconds":90586,"freshness":"FRESH","line1":"1 62520U 25004K   26264.47162807  .00130297  00000+0  10019-2 0  9995","line2":"2 62520  42.9987 330.2893 0000812 231.6635 128.4160 15.70868982 98004","mean_motion":15.70868982,"eccentricity":8.12e-5,"inclination_deg":42.9987,"raan_deg":330.2893,"arg_perigee_deg":231.6635,"mean_anomaly_deg":128.416,"bstar":0.0010019,"rev_number":9800,"period_min":91.669007186495,"perigee_km":355.86538146485,"apogee_km":356.95907225929,"semimajor_km":6734.5492268621,"source":"CELESTRAK","updated_at":"2026-09-22T09:00:49.623230Z"}}}